Back to catalog

SL-6 DEB

LostHEO
NORAD 48258·DEBRIS·🇷🇺 Russia

Launched Jun 16, 1977 from Plesetsk Cosmodrome

Loading…

Next Passes (next 24 hours)

TLE

StaleSource: Space-Track

Epoch: Oct 30, 2021, 02:29 UTC

1 48258U 77047U   21303.10358034 -.00000151  00000-0  00000-0 0  9993
2 48258  67.1461 229.1019 6378247 326.8372   5.8669  2.13679867216952

Track SL-6 DEB in real time with AllMySat

Download on the App Store